1514473200.57,63843,5.75,71448.0,-5.39,-6.13,-6.19,0,*5F
1514473201.79,63844,5.75,71446.5,-5.39,-6.13,-6.19,0,*58
1514473203.04,63845,5.75,71462.5,-5.39,-6.19,-6.19,0,*53
1514473204.29,63846,5.75,71464.3,-5.39,-6.19,-6.19,0,*50
1514473205.54,63847,5.75,71466.3,-5.39,-6.19,-6.19,0,*51
1514473206.82,63848,5.75,71460.0,-5.41,-6.23,-6.19,0,*58
1514473208.04,63849,5.81,71464.5,-5.39,-6.13,-6.19,0,*55
1514473209.26,63850,5.75,71470.3,-5.39,-6.19,-6.13,0,*5D
1514473210.49,63851,5.75,71448.8,-5.39,-6.13,-6.19,0,*5C
1514473211.68,63852,5.75,71448.3,-5.39,-6.13,-6.13,0,*55
1514473212.9,63853,5.75,71454.5,-5.39,-6.13,-6.19,0,*5E
1514473214.1,63854,5.75,71454.5,-5.39,-6.13,-6.13,0,*53
1514473215.35,63855,5.81,71452.3,-5.39,-6.19,-6.19,0,*52
1514473216.6,63856,5.75,71436.0,-5.39,-6.19,-6.19,0,*51
1514473217.82,63857,5.75,71448.8,-5.39,-6.13,-6.19,0,*5A
1514473219.01,63858,5.81,71454.0,-5.35,-6.13,-6.09,0,*58
1514473220.23,63859,5.75,71454.8,-5.35,-6.19,-6.09,0,*53
1514473221.45,63860,5.81,71442.5,-5.33,-6.09,-6.09,0,*5E
1514473222.67,63861,5.75,71450.5,-5.33,-6.13,-6.13,0,*5F
1514473223.91,63862,5.75,71468.0,-5.35,-6.27,-6.19,0,*57
1514473225.16,63863,5.81,71458.3,-5.35,-6.19,-6.19,0,*5B
1514473226.44,63864,5.75,71436.5,-5.33,-6.19,-6.19,0,*5A
1514473227.69,63865,5.81,71442.0,-5.35,-6.19,-6.19,0,*5D
1514473228.96,63866,5.81,71446.3,-5.33,-6.19,-6.19,0,*58
1514473230.18,63867,5.81,71452.8,-5.35,-6.13,-6.19,0,*55
1514473231.41,63868,5.75,71448.5,-5.35,-6.13,-6.19,0,*5A
1514473232.68,63869,5.75,71458.5,-5.33,-6.19,-6.27,0,*5A
1514473233.92,63870,5.75,71456.5,-5.35,-6.19,-6.27,0,*54
1514473235.17,63871,5.75,71460.0,-5.35,-6.19,-6.19,0,*58
1514473236.42,63872,5.75,71468.0,-5.35,-6.27,-6.19,0,*56
1514473237.67,63873,5.81,71460.3,-5.35,-6.19,-6.19,0,*5A
1514473238.89,63874,5.81,71470.3,-5.35,-6.13,-6.19,0,*57
1514473240.09,63875,5.75,71454.8,-5.39,-6.31,-6.31,0,*50
1514473241.31,63876,5.81,71408.8,-5.39,-6.23,-6.31,0,*50
1514473242.55,63877,5.75,71432.8,-5.35,-6.27,-6.27,0,*5E
1514473243.8,63878,5.75,71446.0,-5.35,-6.19,-6.19,0,*51
1514473245.02,63879,5.75,71460.5,-5.33,-6.39,-6.31,0,*5E
1514473246.27,63880,5.75,71464.0,-5.35,-6.19,-6.27,0,*5B
1514473247.52,63881,5.81,71478.5,-5.35,-6.19,-6.19,0,*57
1514473248.77,63882,5.81,71474.3,-5.35,-6.19,-6.19,0,*54
1514473250.04,63883,5.75,71476.0,-5.41,-6.27,-6.27,0,*56
1514473251.28,63884,5.75,71466.3,-5.39,-6.23,-6.23,0,*5E
1514473252.52,63885,5.75,71476.0,-5.39,-6.23,-6.23,0,*5F
1514473253.76,63886,5.81,71486.8,-5.35,-6.27,-6.27,0,*50
1514473255.01,63887,5.75,71486.5,-5.35,-6.19,-6.19,0,*51
1514473256.26,63888,5.75,71496.5,-5.35,-6.19,-6.19,0,*5E
1514473257.48,63889,5.75,71492.0,-5.35,-6.19,-6.13,0,*55
1514473258.7,63890,5.81,71488.5,-5.35,-6.13,-6.19,0,*5D
1514473259.95,63891,5.81,71472.3,-5.35,-6.19,-6.19,0,*56
1514473261.2,63892,5.81,71466.8,-5.35,-6.19,-6.19,0,*55
1514473262.45,63893,5.81,71460.8,-5.35,-6.19,-6.19,0,*54
1514473263.67,63894,5.75,71458.3,-5.35,-6.19,-6.13,0,*59
1514473264.89,63895,5.81,71460.8,-5.35,-6.19,-6.13,0,*58
1514473266.11,63896,5.75,71462.0,-5.35,-6.19,-6.13,0,*5B
1514473267.33,63897,5.75,71460.0,-5.33,-6.13,-6.13,0,*56
1514473268.52,63898,5.81,71464.3,-5.35,-6.13,-6.09,0,*54
1514473269.71,63899,5.75,71462.3,-5.35,-6.13,-6.13,0,*5E
1514473270.91,63900,5.81,71466.0,-5.35,-6.09,-6.13,0,*54
1514473272.1,63901,5.75,71462.5,-5.35,-6.13,-6.09,0,*55
1514473273.29,63902,5.81,71464.8,-5.35,-6.13,-6.13,0,*5D
1514473274.49,63903,5.75,71468.3,-5.35,-6.09,-6.09,0,*5C
1514473275.68,63904,5.81,71470.8,-5.35,-6.13,-6.09,0,*50
1514473276.87,63905,5.81,71468.8,-5.35,-6.13,-6.13,0,*5A
1514473278.09,63906,5.75,71468.0,-5.35,-6.19,-6.13,0,*53
1514473279.31,63907,5.75,71472.0,-5.35,-6.19,-6.13,0,*52
1514473280.53,63908,5.81,71480.5,-5.35,-6.19,-6.13,0,*5D
1514473281.72,63909,5.75,71474.3,-5.35,-6.13,-6.13,0,*56
1514473282.95,63910,5.75,71466.8,-5.31,-6.09,-6.05,0,*56
1514473284.17,63911,5.75,71456.0,-5.33,-6.09,-6.13,0,*52
1514473285.39,63912,5.75,71452.0,-5.33,-6.13,-6.13,0,*5A
1514473286.6,63913,5.75,71446.8,-5.33,-6.13,-6.09,0,*50
1514473287.8,63914,5.75,71450.0,-5.35,-6.09,-6.09,0,*5A
1514473288.99,63915,5.81,71456.8,-5.35,-6.13,-6.13,0,*5B
1514473290.18,63916,5.75,71456.3,-5.35,-6.13,-6.09,0,*53
1514473291.4,63917,5.81,71456.5,-5.33,-6.13,-6.13,0,*5F
1514473292.6,63918,5.75,71448.0,-5.35,-6.13,-6.13,0,*56
1514473293.79,63919,5.75,71442.0,-5.35,-6.13,-6.09,0,*5C
1514473294.98,63920,5.81,71450.3,-5.35,-6.13,-6.13,0,*5D
1514473296.17,63921,5.75,71446.5,-5.35,-6.13,-6.13,0,*5C
1514473297.37,63922,5.81,71448.0,-5.35,-6.13,-6.09,0,*54
1514473298.58,63923,5.75,71444.3,-5.33,-6.13,-6.09,0,*53
1514473299.8,63924,5.75,71444.3,-5.33,-6.09,-6.09,0,*5F
1514473301.0,63925,5.75,71442.5,-5.35,-6.09,-6.13,0,*53
1514473302.21,63926,5.75,71442.0,-5.33,-6.13,-6.09,0,*56
1514473303.43,63927,5.75,71440.8,-5.33,-6.09,-6.13,0,*57
1514473304.63,63928,5.81,71438.0,-5.35,-6.13,-6.13,0,*55
1514473305.84,63929,5.81,71436.3,-5.33,-6.13,-6.13,0,*52
1514473307.06,63930,5.75,71434.0,-5.33,-6.09,-6.09,0,*5A
1514473308.28,63931,5.81,71438.8,-5.33,-6.01,-6.09,0,*53
1514473309.5,63932,5.75,71436.0,-5.33,-6.09,-6.13,0,*53
1514473310.72,63933,5.75,71436.3,-5.33,-6.01,-6.09,0,*51
1514473311.91,63934,5.75,71436.8,-5.35,-6.09,-6.01,0,*50
1514473313.13,63935,5.81,71440.5,-5.33,-6.09,-6.01,0,*57
1514473314.35,63936,5.75,71438.0,-5.33,-6.09,-6.01,0,*54
1514473315.57,63937,5.81,71448.0,-5.33,-6.09,-6.01,0,*55
1514473316.79,63938,5.75,71450.5,-5.33,-6.01,-6.01,0,*52
1514473318.01,63939,5.81,71454.5,-5.31,-5.97,-6.05,0,*59
1514473319.23,63940,5.75,71452.0,-5.33,-6.13,-6.13,0,*5D
1514473320.45,63941,5.75,71452.8,-5.33,-6.09,-6.13,0,*57
1514473321.66,63942,5.75,71458.3,-5.33,-6.13,-6.09,0,*54
1514473322.88,63943,5.75,71462.0,-5.33,-6.09,-6.09,0,*5E
1514473324.1,63944,5.75,71464.0,-5.31,-6.05,-6.05,0,*5B
1514473325.33,63945,5.75,71464.5,-5.31,-5.97,-6.09,0,*5E
1514473326.55,63946,5.75,71460.0,-5.31,-6.05,-6.05,0,*59
1514473327.77,63947,5.75,71456.0,-5.31,-6.05,-6.05,0,*58
1514473328.99,63948,5.75,71454.0,-5.33,-6.09,-6.09,0,*55
1514473330.21,63949,5.75,71452.8,-5.33,-6.09,-6.13,0,*5F
1514473331.43,63950,5.75,71452.8,-5.31,-6.09,-6.09,0,*5E
1514473332.66,63951,5.75,71452.3,-5.31,-6.09,-6.09,0,*5F
1514473333.88,63952,5.75,71452.3,-5.31,-6.05,-6.09,0,*50
1514473335.11,63953,5.81,71454.5,-5.31,-6.09,-6.09,0,*5D
1514473336.33,63954,5.75,71456.0,-5.31,-6.09,-6.09,0,*5A
1514473337.56,63955,5.81,71460.5,-5.31,-6.13,-6.09,0,*50
1514473338.76,63956,5.75,71458.5,-5.29,-6.13,-6.09,0,*5A
1514473339.99,63957,5.75,71458.5,-5.31,-6.09,-6.09,0,*59
1514473341.21,63958,5.75,71462.8,-5.31,-6.13,-6.09,0,*5D
1514473342.46,63959,5.75,71462.5,-5.31,-6.13,-6.23,0,*54
1514473343.71,63960,5.75,71462.5,-5.31,-6.23,-6.13,0,*5E
1514473344.98,63961,5.75,71464.8,-5.31,-6.23,-6.23,0,*5C
1514473346.25,63962,5.75,71450.0,-5.31,-6.23,-6.23,0,*5F
1514473347.5,63963,5.75,71444.5,-5.31,-6.13,-6.23,0,*5D
1514473348.77,63964,5.75,71448.0,-5.33,-6.19,-6.27,0,*56
1514473350.04,63965,5.75,71452.5,-5.33,-6.19,-6.19,0,*5A
1514473351.31,63966,5.75,71462.5,-5.33,-6.19,-6.27,0,*54
1514473352.59,63967,5.75,71462.5,-5.33,-6.19,-6.19,0,*58
1514473353.86,63968,5.81,71462.3,-5.33,-6.19,-6.27,0,*5A
1514473355.12,63969,5.75,71462.0,-5.33,-6.27,-6.27,0,*56
1514473356.4,63970,5.81,71466.3,-5.33,-6.19,-6.19,0,*5E
1514473357.67,63971,5.75,71458.3,-5.33,-6.19,-6.27,0,*52
1514473358.92,63972,5.75,71454.5,-5.35,-6.19,-6.19,0,*5A
1514473360.16,63973,5.75,71450.3,-5.35,-6.19,-6.27,0,*56
1514473361.43,63974,5.81,71452.3,-5.33,-6.27,-6.19,0,*57
1514473362.68,63975,5.75,71454.5,-5.35,-6.19,-6.19,0,*5D
1514473363.95,63976,5.81,71462.0,-5.33,-6.27,-6.19,0,*55
1514473365.21,63977,5.75,71462.0,-5.33,-6.27,-6.27,0,*59
1514473366.46,63978,5.81,71472.0,-5.33,-6.31,-6.27,0,*51
1514473367.7,63979,5.75,71472.5,-5.33,-6.27,-6.31,0,*50
1514473368.92,63980,5.81,71468.8,-5.33,-6.31,-6.31,0,*51
1514473370.15,63981,5.75,71462.5,-5.33,-6.31,-6.31,0,*50
1514473371.35,63982,5.81,71468.0,-5.35,-6.31,-6.31,0,*55
1514473372.61,63983,5.75,71468.0,-5.33,-6.27,-6.27,0,*52
1514473373.86,63984,5.75,71474.3,-5.35,-6.19,-6.19,0,*53
1514473375.14,63985,5.75,71464.3,-5.33,-6.19,-6.19,0,*54
1514473376.39,63986,5.75,71470.0,-5.35,-6.19,-6.19,0,*51
1514473377.66,63987,5.81,71478.8,-5.33,-6.19,-6.27,0,*5B
1514473378.91,63988,5.75,71486.5,-5.33,-6.09,-6.19,0,*58
1514473380.15,63989,5.75,71478.3,-5.33,-6.13,-6.19,0,*52
1514473381.4,63990,5.75,71466.0,-5.33,-6.13,-6.19,0,*5A
1514473382.65,63991,5.75,71458.0,-5.33,-6.13,-6.19,0,*5B
1514473383.9,63992,5.75,71464.3,-5.33,-6.13,-6.19,0,*58
1514473385.11,63993,5.81,71472.8,-5.33,-6.13,-6.13,0,*53
1514473386.39,63994,5.75,71474.5,-5.33,-6.19,-6.19,0,*54
1514473387.65,63995,5.75,71478.3,-5.33,-6.27,-6.19,0,*58
1514473388.93,63996,5.75,71486.8,-5.33,-6.19,-6.19,0,*56
1514473390.2,63997,5.75,71496.8,-5.33,-6.19,-6.19,0,*57
1514473391.48,63998,5.81,71484.0,-5.33,-6.19,-6.19,0,*58
1514473392.74,63999,5.75,71464.3,-5.33,-6.27,-6.19,0,*54
1514473393.99,64000,5.75,71448.0,-5.33,-6.27,-6.31,0,*50
1514473395.24,64001,5.75,71460.0,-5.33,-6.19,-6.31,0,*5C
1514473396.5,64002,5.75,71478.0,-5.33,-6.27,-6.27,0,*55
1514473397.72,64003,5.75,71472.8,-5.33,-6.39,-6.43,0,*59
1514473398.94,64004,5.75,71480.0,-5.33,-6.31,-6.39,0,*5B
1514473400.21,64005,5.75,71490.0,-5.33,-6.19,-6.19,0,*52
1514473401.46,64006,5.75,71486.3,-5.33,-6.19,-6.13,0,*5B
1514473402.67,64007,5.75,71484.0,-5.33,-6.13,-6.13,0,*50
1514473403.89,64008,5.75,71480.3,-5.33,-6.13,-6.13,0,*5F
1514473405.08,64009,5.81,71478.3,-5.35,-6.13,-6.13,0,*58
1514473406.33,64010,5.75,71478.8,-5.33,-6.19,-6.13,0,*5C
1514473407.57,64011,5.75,71482.8,-5.33,-6.19,-6.13,0,*5D
1514473408.84,64012,5.75,71480.0,-5.33,-6.19,-6.27,0,*59
1514473410.08,64013,5.75,71468.0,-5.35,-6.27,-6.27,0,*53
1514473411.33,64014,5.75,71472.8,-5.35,-6.19,-6.27,0,*59
1514473412.58,64015,5.75,71456.3,-5.35,-6.19,-6.19,0,*55
1514473413.82,64016,5.75,71456.8,-5.35,-6.19,-6.19,0,*56
1514473415.08,64017,5.75,71470.5,-5.35,-6.19,-6.19,0,*57
1514473416.3,64018,5.75,71468.0,-5.35,-6.13,-6.19,0,*52
1514473417.51,64019,5.75,71464.5,-5.33,-6.13,-6.13,0,*5F
1514473418.73,64020,5.75,71460.5,-5.33,-6.13,-6.13,0,*55
1514473419.98,64021,5.75,71464.3,-5.33,-6.13,-6.19,0,*5E
1514473421.23,64022,5.75,71484.3,-5.33,-6.13,-6.19,0,*5D
1514473422.44,64023,5.75,71486.0,-5.33,-6.13,-6.13,0,*56
1514473423.66,64024,5.75,71490.8,-5.33,-6.13,-6.13,0,*51
1514473424.86,64025,5.75,71494.3,-5.35,-6.13,-6.13,0,*56
1514473426.05,64026,5.81,71492.0,-5.35,-6.09,-6.13,0,*5E
1514473427.27,64027,5.75,71490.3,-5.33,-6.13,-6.13,0,*52
1514473428.49,64028,5.75,71512.5,-5.33,-6.13,-6.13,0,*5D
1514473429.7,64029,5.75,71516.0,-5.33,-6.13,-6.13,0,*5C
1514473430.92,64030,5.75,71500.3,-5.33,-6.09,-6.13,0,*5F
1514473432.17,64031,5.75,71486.5,-5.33,-6.19,-6.13,0,*5F
1514473433.44,64032,5.75,71500.5,-5.33,-6.19,-6.19,0,*56
1514473434.71,64033,5.81,71510.8,-5.33,-6.19,-6.19,0,*57
1514473435.99,64034,5.75,71506.0,-5.33,-6.19,-6.19,0,*50
1514473437.26,64035,5.75,71502.8,-5.33,-6.19,-6.19,0,*51
1514473438.53,64036,5.75,71502.5,-5.33,-6.19,-6.19,0,*52
1514473439.75,64037,5.75,71500.0,-5.33,-6.13,-6.09,0,*58
1514473440.94,64038,5.75,71504.5,-5.35,-6.13,-6.13,0,*5A
1514473442.16,64039,5.75,71494.5,-5.33,-6.13,-6.13,0,*5D
1514473443.39,64040,5.75,71482.5,-5.31,-6.09,-6.09,0,*51
1514473444.6,64041,5.75,71484.5,-5.33,-6.13,-6.09,0,*59
1514473445.82,64042,5.75,71484.0,-5.33,-6.09,-6.13,0,*5A
1514473447.02,64043,5.75,71478.5,-5.35,-6.09,-6.13,0,*5D
1514473448.24,64044,5.75,71470.0,-5.33,-6.13,-6.13,0,*57
1514473449.45,64045,5.75,71480.8,-5.33,-6.13,-6.13,0,*56
1514473450.67,64046,5.75,71474.5,-5.33,-6.13,-6.09,0,*5E
1514473451.9,64047,5.75,71474.3,-5.31,-6.09,-6.05,0,*5A
1514473453.12,64048,5.75,71474.0,-5.31,-6.05,-6.05,0,*59
1514473454.33,64049,5.75,71474.0,-5.33,-6.13,-6.01,0,*59
1514473455.53,64050,5.75,71464.8,-5.29,-6.05,-5.97,0,*51
1514473456.78,64051,5.75,71460.0,-5.31,-6.05,-5.93,0,*5D
1514473458.01,64052,5.75,71460.8,-5.31,-6.09,-6.09,0,*52
1514473459.21,64053,5.75,71462.0,-5.29,-6.09,-6.09,0,*5A
1514473460.44,64054,5.75,71456.3,-5.31,-6.09,-6.09,0,*54
1514473461.67,64055,5.81,71452.0,-5.31,-6.09,-6.09,0,*55
1514473462.89,64056,5.75,71454.5,-5.31,-6.09,-6.13,0,*5D
1514473464.17,64057,5.75,71444.5,-5.31,-6.23,-6.23,0,*57
1514473465.43,64058,5.75,71436.3,-5.33,-6.27,-6.27,0,*5A
1514473466.7,64059,5.75,71440.0,-5.33,-6.19,-6.27,0,*56
1514473467.97,64060,5.75,71438.8,-5.33,-6.19,-6.19,0,*51
1514473469.25,64061,5.75,71436.0,-5.33,-6.19,-6.19,0,*50
1514473470.52,64062,5.75,71436.5,-5.33,-6.27,-6.19,0,*5E
1514473471.78,64063,5.75,71436.8,-5.33,-6.27,-6.27,0,*52
1514473473.05,64064,5.75,71434.3,-5.33,-6.19,-6.19,0,*55
1514473474.32,64065,5.75,71430.8,-5.33,-6.27,-6.27,0,*54
1514473475.57,64066,5.75,71430.8,-5.31,-6.23,-6.13,0,*56
1514473476.84,64067,5.75,71424.5,-5.31,-6.23,-6.23,0,*54
1514473478.08,64068,5.75,71424.3,-5.35,-6.19,-6.27,0,*52
1514473479.35,64069,5.75,71424.8,-5.33,-6.19,-6.27,0,*55
1514473480.58,64070,5.75,71420.0,-5.33,-6.31,-6.31,0,*50
1514473481.85,64071,5.75,71426.5,-5.33,-6.19,-6.27,0,*5C
1514473483.11,64072,5.75,71432.8,-5.33,-6.27,-6.27,0,*52
1514473484.38,64073,5.75,71436.8,-5.33,-6.27,-6.27,0,*53
1514473485.64,64074,5.81,71446.8,-5.33,-6.27,-6.27,0,*54
1514473486.85,64075,5.75,71442.5,-5.33,-6.39,-6.39,0,*55
1514473488.12,64076,5.75,71442.3,-5.33,-6.27,-6.27,0,*56
1514473489.39,64077,5.75,71440.3,-5.33,-6.27,-6.19,0,*5A
1514473490.65,64078,5.75,71442.3,-5.33,-6.27,-6.19,0,*55
1514473491.93,64079,5.75,71444.0,-5.33,-6.19,-6.19,0,*59
1514473493.17,64080,5.75,71450.0,-5.33,-6.19,-6.13,0,*55
1514473494.42,64081,5.75,71450.5,-5.35,-6.27,-6.19,0,*55
1514473495.63,64082,5.75,71446.0,-5.33,-6.39,-6.39,0,*5D
1514473496.84,64083,5.75,71436.8,-5.33,-6.39,-6.39,0,*5C
1514473498.07,64084,5.75,71440.5,-5.33,-6.31,-6.31,0,*5B
1514473499.27,64085,5.75,71450.0,-5.35,-6.31,-6.31,0,*5C
1514473500.51,64086,5.75,71450.8,-5.33,-6.39,-6.19,0,*5B
1514473501.73,64087,5.75,71442.0,-5.33,-6.39,-6.39,0,*58
1514473502.92,64088,5.75,71436.0,-5.35,-6.39,-6.43,0,*5C
1514473504.14,64089,5.75,71432.8,-5.33,-6.31,-6.31,0,*56
1514473505.42,64090,5.81,71442.8,-5.33,-6.19,-6.27,0,*53
1514473506.68,64091,5.75,71440.3,-5.33,-6.27,-6.27,0,*5F
1514473507.88,64092,5.75,71436.0,-5.35,-6.39,-6.31,0,*52
1514473509.1,64093,5.81,71444.3,-5.33,-6.31,-6.31,0,*5D
1514473510.38,64094,5.75,71442.3,-5.33,-6.19,-6.19,0,*5A
1514473511.65,64095,5.75,71444.0,-5.33,-6.19,-6.19,0,*5B
1514473512.9,64096,5.75,71448.3,-5.35,-6.19,-6.19,0,*5E
1514473514.17,64097,5.75,71450.5,-5.33,-6.19,-6.19,0,*59
1514473515.42,64098,5.75,71450.3,-5.33,-6.19,-6.13,0,*5C
1514473516.63,64099,5.75,71448.3,-5.33,-6.13,-6.13,0,*57
1514473517.85,64100,5.75,71448.8,-5.33,-6.13,-6.13,0,*56
1514473519.04,64101,5.75,71452.8,-5.35,-6.13,-6.13,0,*51
1514473520.29,64102,5.75,71458.3,-5.33,-6.13,-6.19,0,*5E
1514473521.51,64103,5.75,71454.5,-5.33,-6.13,-6.13,0,*55
1514473522.73,64104,5.75,71450.5,-5.33,-6.09,-6.13,0,*59
1514473523.94,64105,5.75,71450.5,-5.33,-6.13,-6.13,0,*53
1514473525.21,64106,5.75,71436.0,-5.33,-6.27,-6.27,0,*50
1514473526.43,64107,5.75,71416.3,-5.33,-6.43,-6.43,0,*51
1514473527.65,64108,5.75,71412.5,-5.33,-6.43,-6.43,0,*5E
1514473528.84,64109,5.75,71424.3,-5.35,-6.39,-6.43,0,*54
1514473530.11,64110,5.75,71440.3,-5.33,-6.27,-6.27,0,*57
1514473531.38,64111,5.75,71448.0,-5.33,-6.19,-6.27,0,*5B
1514473532.62,64112,5.75,71448.0,-5.35,-6.27,-6.19,0,*5E
1514473533.87,64113,5.75,71462.5,-5.35,-6.19,-6.19,0,*52
1514473535.15,64114,5.75,71464.3,-5.33,-6.19,-6.19,0,*53
1514473536.42,64115,5.75,71460.5,-5.33,-6.19,-6.19,0,*52
1514473537.69,64116,5.75,71464.3,-5.33,-6.19,-6.19,0,*51
1514473538.97,64117,5.75,71466.8,-5.33,-6.19,-6.19,0,*50
1514473540.21,64118,5.75,71478.5,-5.33,-6.19,-6.13,0,*55
1514473541.45,64119,5.75,71484.5,-5.33,-6.19,-6.13,0,*54
1514473542.73,64120,5.75,71482.5,-5.33,-6.19,-6.27,0,*59
1514473543.99,64121,5.75,71468.0,-5.33,-6.27,-6.27,0,*55
1514473545.25,64122,5.75,71456.5,-5.33,-6.27,-6.27,0,*56
1514473546.53,64123,5.75,71444.8,-5.33,-6.19,-6.19,0,*57
1514473547.8,64124,5.75,71442.5,-5.33,-6.19,-6.19,0,*50
1514473549.07,64125,5.75,71428.3,-5.33,-6.27,-6.27,0,*51
1514473550.28,64126,5.75,71434.3,-5.33,-6.31,-6.39,0,*5A
1514473551.56,64127,5.75,71442.8,-5.33,-6.19,-6.19,0,*53
1514473552.8,64128,5.75,71444.8,-5.35,-6.19,-6.27,0,*57
1514473554.07,64129,5.75,71450.5,-5.33,-6.27,-6.27,0,*5D
1514473555.34,64130,5.75,71456.5,-5.33,-6.19,-6.19,0,*55
1514473556.61,64131,5.75,71456.5,-5.33,-6.27,-6.27,0,*54
1514473557.85,64132,5.75,71458.8,-5.35,-6.27,-6.27,0,*51
1514473559.11,64133,5.75,71462.8,-5.33,-6.27,-6.19,0,*5B
1514473560.38,64134,5.75,71464.0,-5.33,-6.27,-6.27,0,*51
1514473561.65,64135,5.75,71460.0,-5.33,-6.19,-6.19,0,*50
1514473562.9,64136,5.75,71452.3,-5.35,-6.19,-6.19,0,*55
1514473564.16,64137,5.75,71450.0,-5.33,-6.27,-6.27,0,*52
1514473565.39,64138,5.75,71446.8,-5.35,-6.27,-6.31,0,*5C
1514473566.63,64139,5.75,71442.3,-5.35,-6.27,-6.27,0,*5A
1514473567.9,64140,5.75,71434.0,-5.33,-6.19,-6.19,0,*52
1514473569.12,64141,5.75,71438.8,-5.35,-6.19,-6.13,0,*5F
1514473570.36,64142,5.75,71436.0,-5.33,-6.19,-6.13,0,*5A
1514473571.63,64143,5.75,71442.3,-5.33,-6.27,-6.19,0,*5C
1514473572.85,64144,5.75,71454.5,-5.33,-6.13,-6.13,0,*56
1514473574.06,64145,5.75,71460.8,-5.33,-6.13,-6.13,0,*57
1514473575.31,64146,5.75,71468.5,-5.33,-6.13,-6.19,0,*5E
1514473576.53,64147,5.75,71466.0,-5.33,-6.13,-6.13,0,*55
1514473577.72,64148,5.75,71472.8,-5.35,-6.09,-6.09,0,*5C
1514473578.94,64149,5.75,71472.5,-5.33,-6.13,-6.13,0,*5B
1514473580.16,64150,5.81,71460.0,-5.33,-6.13,-6.13,0,*53
1514473581.35,64151,5.75,71462.5,-5.35,-6.13,-6.13,0,*54
1514473582.54,64152,5.75,71462.8,-5.35,-6.13,-6.09,0,*5C
1514473583.74,64153,5.75,71458.5,-5.35,-6.13,-6.13,0,*56
1514473584.95,64154,5.75,71450.0,-5.33,-6.13,-6.13,0,*57
1514473586.17,64155,5.75,71468.8,-5.33,-6.13,-6.13,0,*56
1514473587.39,64156,5.75,71464.5,-5.33,-6.13,-6.13,0,*55
1514473588.65,64157,5.75,71450.5,-5.33,-6.27,-6.27,0,*54
1514473589.92,64158,5.75,71470.8,-5.33,-6.27,-6.27,0,*5B
1514473591.14,64159,5.75,71486.5,-5.31,-6.09,-6.13,0,*53
1514473592.39,64160,5.75,71472.3,-5.33,-6.09,-5.77,0,*5A
1514473593.61,64161,5.75,71462.5,-5.33,-6.13,-6.13,0,*51
1514473594.85,64162,5.75,71476.8,-5.33,-6.13,-6.19,0,*58
1514473596.1,64163,5.75,71474.5,-5.33,-6.13,-6.19,0,*59
1514473597.35,64164,5.75,71472.3,-5.33,-6.13,-6.19,0,*5E
1514473598.56,64165,5.75,71470.0,-5.33,-6.13,-6.13,0,*55
1514473599.78,64166,5.75,71480.0,-5.33,-6.13,-6.13,0,*56
1514473601.0,64167,5.75,71480.0,-5.33,-6.09,-6.09,0,*57
1514473602.22,64168,5.75,71474.5,-5.33,-6.13,-6.13,0,*58
1514473603.44,64169,5.75,71466.5,-5.33,-6.13,-6.13,0,*59
1514473604.66,64170,5.75,71472.8,-5.31,-6.09,-6.09,0,*53
1514473605.89,64171,5.75,71482.3,-5.31,-6.09,-6.05,0,*5E
1514473607.14,64172,5.75,71468.5,-5.31,-6.09,-6.23,0,*59
1514473608.41,64173,5.75,71464.3,-5.33,-6.19,-6.27,0,*5F
1514473609.66,64174,5.75,71448.3,-5.35,-6.19,-6.27,0,*5E
1514473610.93,64175,5.75,71452.0,-5.33,-6.19,-6.19,0,*54
1514473612.2,64176,5.75,71444.3,-5.33,-6.19,-6.19,0,*57
1514473613.47,64177,5.75,71456.3,-5.33,-6.27,-6.27,0,*56
1514473614.72,64178,5.75,71474.0,-5.35,-6.19,-6.19,0,*5F
1514473615.98,64179,5.75,71458.3,-5.33,-6.27,-6.27,0,*58
1514473617.2,64180,5.81,71434.8,-5.33,-6.39,-6.39,0,*5E
1514473618.41,64181,5.75,71450.5,-5.33,-6.39,-6.39,0,*5F
1514473619.63,64182,5.75,71446.0,-5.33,-6.39,-6.39,0,*5C
1514473620.84,64183,5.75,71450.0,-5.33,-6.39,-6.39,0,*5D
1514473622.06,64184,5.75,71446.0,-5.33,-6.31,-6.31,0,*5A
1514473623.28,64185,5.75,71454.5,-5.33,-6.31,-6.39,0,*53
1514473624.51,64186,5.75,71456.5,-5.33,-6.31,-6.31,0,*58
1514473625.75,64187,5.75,71454.5,-5.33,-6.31,-6.19,0,*53
1514473627.02,64188,5.75,71452.5,-5.33,-6.27,-6.19,0,*5B
1514473628.29,64189,5.75,71458.3,-5.33,-6.27,-6.19,0,*5A
1514473629.56,64190,5.75,71464.8,-5.33,-6.19,-6.19,0,*5F
1514473630.83,64191,5.75,71464.0,-5.33,-6.19,-6.27,0,*53
1514473632.11,64192,5.75,71460.0,-5.33,-6.19,-6.19,0,*5D
1514473633.38,64193,5.75,71458.5,-5.33,-6.27,-6.19,0,*51
1514473634.65,64194,5.75,71466.5,-5.33,-6.19,-6.19,0,*5B
1514473635.9,64195,5.75,71472.8,-5.35,-6.19,-6.19,0,*5C
1514473637.17,64196,5.75,71472.0,-5.33,-6.19,-6.19,0,*59
1514473638.42,64197,5.75,71472.0,-5.33,-6.13,-6.19,0,*52
1514473639.64,64198,5.75,71478.5,-5.33,-6.13,-6.13,0,*57
1514473640.86,64199,5.75,71486.5,-5.31,-6.09,-6.09,0,*54
1514473642.09,64200,5.75,71472.3,-5.31,-6.09,-6.09,0,*57
1514473643.32,64201,5.75,71474.5,-5.31,-6.13,-6.09,0,*5D
1514473644.54,64202,5.75,71492.8,-5.31,-6.09,-6.09,0,*55
1514473645.76,64203,5.75,71490.5,-5.33,-6.13,-6.09,0,*5D
1514473646.98,64204,5.75,71468.5,-5.33,-6.13,-6.13,0,*51
1514473648.19,64205,5.75,71480.0,-5.33,-6.13,-6.13,0,*50
1514473649.41,64206,5.75,71482.8,-5.33,-6.09,-6.13,0,*58
1514473650.64,64207,5.75,71480.5,-5.31,-6.09,-6.05,0,*5C
1514473651.87,64208,5.75,71484.3,-5.31,-6.09,-6.09,0,*5F
1514473653.09,64209,5.75,71494.0,-5.31,-6.09,-6.09,0,*5E
1514473654.32,64210,5.75,71498.3,-5.31,-6.09,-6.09,0,*56
1514473655.54,64211,5.75,71496.8,-5.31,-6.05,-6.09,0,*5B
1514473656.77,64212,5.75,71498.8,-5.31,-6.09,-6.09,0,*54
1514473657.99,64213,5.75,71492.8,-5.31,-6.09,-6.09,0,*55
1514473659.22,64214,5.75,71490.0,-5.31,-6.09,-6.09,0,*52
1514473660.45,64215,5.75,71482.5,-5.31,-6.09,-6.09,0,*53
1514473661.68,64216,5.75,71484.0,-5.31,-6.09,-6.09,0,*50
1514473662.9,64217,5.75,71482.3,-5.31,-6.09,-6.13,0,*5A
1514473664.13,64218,5.75,71482.0,-5.31,-6.09,-6.13,0,*55
1514473665.36,64219,5.75,71476.3,-5.31,-6.09,-6.09,0,*5F
1514473666.58,64220,5.75,71476.8,-5.31,-6.05,-6.09,0,*59
1514473667.8,64221,5.75,71478.5,-5.31,-6.09,-6.09,0,*54
1514473669.01,64222,5.75,71482.5,-5.29,-6.13,-6.09,0,*55
1514473670.23,64223,5.75,71480.8,-5.31,-6.13,-6.09,0,*5D
1514473671.48,64224,5.75,71482.0,-5.31,-6.23,-6.13,0,*52
1514473672.73,64225,5.75,71486.5,-5.31,-6.23,-6.13,0,*53
1514473674.0,64226,5.75,71494.8,-5.31,-6.23,-6.23,0,*53
1514473675.27,64227,5.75,71494.0,-5.31,-6.23,-6.23,0,*52
1514473676.54,64228,5.75,71490.3,-5.31,-6.23,-6.23,0,*5D
1514473677.81,64229,5.75,71474.3,-5.31,-6.23,-6.23,0,*5C
1514473679.04,64230,5.75,71478.5,-5.29,-6.23,-6.13,0,*5E
1514473680.28,64231,5.75,71484.0,-5.31,-6.13,-6.23,0,*56
1514473681.51,64232,5.75,71476.3,-5.31,-6.13,-6.13,0,*56
1514473682.76,64233,5.75,71474.5,-5.31,-6.23,-6.13,0,*54
1514473683.98,64234,5.75,71490.5,-5.31,-6.13,-6.13,0,*50
1514473685.23,64235,5.75,71474.3,-5.31,-6.23,-6.13,0,*52
1514473686.47,64236,5.75,71488.0,-5.33,-6.39,-6.27,0,*5F
1514473687.7,64237,5.75,71468.8,-5.29,-6.35,-6.23,0,*5D
1514473688.97,64238,5.75,71458.8,-5.31,-6.27,-6.23,0,*58
1514473690.21,64239,5.75,71450.5,-5.31,-6.23,-6.13,0,*5E
1514473691.46,64240,5.75,71450.5,-5.31,-6.23,-6.13,0,*50
1514473692.73,64241,5.75,71464.0,-5.33,-6.19,-6.27,0,*5D
1514473694.0,64242,5.75,71456.3,-5.33,-6.27,-6.27,0,*53
1514473695.26,64243,5.75,71474.8,-5.33,-6.27,-6.27,0,*52
1514473696.51,64244,5.75,71466.5,-5.33,-6.31,-6.19,0,*5F
1514473697.75,64245,5.75,71466.0,-5.33,-6.31,-6.27,0,*53
1514473699.0,64246,5.75,71468.5,-5.33,-6.31,-6.27,0,*50
1514473700.27,64247,5.75,71474.5,-5.31,-6.27,-6.23,0,*50
1514473701.46,64248,5.75,71458.0,-5.35,-6.43,-6.39,0,*52
1514473702.68,64249,5.75,71464.8,-5.33,-6.39,-6.31,0,*50
1514473703.89,64250,5.75,71468.8,-5.33,-6.39,-6.39,0,*50
1514473705.11,64251,5.75,71448.8,-5.33,-6.39,-6.31,0,*59
1514473706.34,64252,5.75,71460.3,-5.33,-6.39,-6.31,0,*5A
1514473707.56,64253,5.75,71458.0,-5.33,-6.39,-6.31,0,*5B
1514473708.78,64254,5.75,71456.5,-5.33,-6.43,-6.31,0,*51
1514473710.0,64255,5.75,71454.3,-5.33,-6.51,-6.39,0,*5B
1514473711.23,64256,5.75,71462.8,-5.33,-6.43,-6.31,0,*53
1514473712.45,64257,5.75,71466.3,-5.33,-6.51,-6.39,0,*59
1514473713.66,64258,5.75,71464.0,-5.33,-6.43,-6.39,0,*55
1514473714.9,64259,5.75,71478.3,-5.33,-6.39,-6.27,0,*56
1514473716.15,64260,5.75,71470.0,-5.33,-6.31,-6.27,0,*54
1514473717.39,64261,5.75,71472.3,-5.33,-6.31,-6.27,0,*55
1514473718.63,64262,5.75,71478.3,-5.33,-6.39,-6.27,0,*5E
1514473719.9,64263,5.75,71476.3,-5.31,-6.27,-6.23,0,*56